GW2522 Weather Reports


time (UTC)temp
F
wind
direction
speed
knots
gust
knots
rain 1hr
in
rain 24hr
in
rain mn
in
humidity
%
barometer
mb
20260509190940 78 256 0.0 0.0 0.00 0.00 0.00 99 1004.3
20260509190437 78 249 0.0 0.0 0.00 0.00 0.00 99 1004.3
20260509185935 78 249 0.0 0.0 0.00 0.00 0.00 99 1004.2
20260509185432 78 245 0.0 0.0 0.00 0.00 0.00 99 1004.0
20260509184929 78 243 0.0 0.0 0.00 0.00 0.00 99 1004.2
20260509184427 78 274 0.0 0.9 0.00 0.00 0.00 99 1004.5
20260509183923 78 258 0.0 0.9 0.00 0.00 0.00 99 1004.4
20260509183417 78 250 0.0 0.0 0.00 0.00 0.00 99 1004.3
20260509182914 78 265 0.0 0.0 0.00 0.00 0.00 99 1004.3
20260509182411 78 252 0.0 0.9 0.00 0.00 0.00 99 1004.3
20260509181908 78 262 0.9 0.9 0.00 0.00 0.00 99 1004.5
20260509181406 78 249 0.0 0.0 0.00 0.00 0.00 99 1004.5
20260509180903 78 249 0.0 0.0 0.00 0.00 0.00 99 1004.5
20260509180358 79 248 0.0 0.0 0.00 0.00 0.00 99 1004.6
20260509175855 78 247 0.0 0.0 0.00 0.00 0.00 99 1004.4
20260509175351 79 249 0.0 0.0 0.00 0.00 0.00 99 1005.0
20260509174848 79 241 0.0 0.0 0.00 0.00 0.00 99 1004.8
20260509174344 79 243 0.0 0.0 0.00 0.00 0.00 99 1004.6
20260509173840 79 250 0.0 0.0 0.00 0.00 0.00 99 1004.7
20260509173335 79 248 0.0 0.0 0.00 0.00 0.00 99 1004.8
20260509172831 79 249 0.0 0.0 0.00 0.00 0.00 99 1004.6
20260509172328 79 240 0.0 0.0 0.00 0.00 0.00 99 1004.5
20260509171824 79 242 0.0 0.0 0.00 0.00 0.00 99 1004.7
20260509171320 79 245 0.0 0.0 0.00 0.00 0.00 99 1004.8
20260509170817 79 245 0.0 0.0 0.00 0.00 0.00 99 1004.8
20260509170313 79 240 0.0 0.0 0.00 0.00 0.00 99 1004.9
20260509165812 79 247 0.0 0.0 0.00 0.00 0.00 99 1005.2
20260509165307 79 244 0.0 0.0 0.00 0.00 0.00 99 1005.1
20260509164803 79 244 0.0 0.0 0.00 0.00 0.00 99 1005.2
20260509164300 79 250 0.0 0.0 0.00 0.00 0.00 99 1005.1
20260509163756 80 244 0.0 0.0 0.00 0.00 0.00 99 1005.1
20260509163253 80 243 0.0 0.0 0.00 0.00 0.00 99 1005.0
20260509162751 80 252 0.0 0.0 0.00 0.00 0.00 99 1005.2
20260509162245 80 249 0.0 0.0 0.00 0.00 0.00 99 1005.4
20260509161742 80 247 0.0 0.0 0.00 0.00 0.00 99 1005.3
20260509161238 80 242 0.0 0.9 0.00 0.00 0.00 99 1005.3
20260509160733 80 267 0.0 0.9 0.00 0.00 0.00 99 1005.3
20260509160230 80 247 0.0 0.0 0.00 0.00 0.00 99 1005.5
20260509155724 80 251 0.0 0.0 0.00 0.31 0.31 99 1005.1
20260509155221 80 256 0.0 0.0 0.00 0.31 0.31 99 1005.3
20260509154717 80 250 0.0 0.0 0.00 0.31 0.31 99 1005.2
20260509154215 80 264 0.0 0.0 0.00 0.31 0.31 99 1005.3
20260509153712 80 250 0.0 0.0 0.00 0.31 0.31 99 1005.3
20260509153208 80 251 0.0 0.0 0.00 0.31 0.31 99 1005.1
20260509152704 80 253 0.0 0.9 0.00 0.31 0.31 99 1005.4
20260509152201 80 256 0.9 1.7 0.00 0.31 0.31 99 1005.2
20260509151658 81 246 0.0 0.0 0.00 0.31 0.31 99 1005.3
20260509151155 81 216 0.0 0.9 0.00 0.31 0.31 99 1005.1
20260509150653 81 245 0.0 0.0 0.00 0.31 0.31 99 1004.9
20260509150151 81 235 0.0 0.0 0.00 0.31 0.31 99 1005.4
20260509145647 81 240 0.0 0.0 0.00 0.31 0.31 99 1005.3
20260509145142 81 251 0.0 0.9 0.00 0.31 0.31 99 1005.3
20260509144639 81 259 0.0 0.0 0.00 0.31 0.31 99 1005.0
20260509144136 81 247 0.0 0.0 0.00 0.31 0.31 99 1005.1
20260509143633 81 241 0.0 0.0 0.00 0.31 0.31 99 1005.0
20260509143131 81 235 0.0 0.0 0.00 0.31 0.31 99 1005.0
20260509142626 81 247 0.0 0.0 0.00 0.31 0.31 98 1005.0
20260509142123 81 251 0.0 0.0 0.00 0.31 0.31 98 1005.1
20260509141619 82 245 0.0 0.0 0.00 0.31 0.31 98 1004.9
20260509141115 82 240 0.0 0.0 0.07 0.31 0.31 97 1004.9
20260509140612 81 222 0.0 0.0 0.07 0.31 0.31 97 1004.6
20260509140110 82 241 0.0 0.9 1.02 0.30 0.30 96 1004.6
20260509135607 82 266 1.7 2.6 1.02 0.27 0.27 96 1004.5
20260509135105 82 253 0.0 0.9 0.61 0.12 0.12 95 1004.7
20260509134601 83 215 0.0 0.0 0.54 0.09 0.09 94 1004.7
20260509134059 83 189 0.0 0.9 0.07 0.01 0.01 93 1004.4
20260509133556 83 271 0.0 0.0 0.00 0.00 0.00 93 1004.7
20260509133053 82 239 0.0 0.0 0.00 0.00 0.00 92 1004.5
20260509132551 82 209 0.0 0.9 0.00 0.00 0.00 92 1004.4
20260509132049 82 250 0.0 0.9 0.00 0.00 0.00 92 1004.5
20260509131545 82 1 1.7 1.7 0.00 0.00 0.00 92 1004.5
20260509131042 82 2 0.9 1.7 0.00 0.00 0.00 92 1004.6
20260509130538 82 275 0.9 1.7 0.00 0.00 0.00 92 1004.4
20260509130035 82 250 0.9 1.7 0.00 0.00 0.00 92 1004.3
20260509125531 82 207 0.9 1.7 0.00 0.00 0.00 93 1004.1
20260509125028 83 238 0.0 1.7 0.00 0.00 0.00 93 1004.5
20260509124524 83 342 2.6 2.6 0.00 0.00 0.00 94 1004.5
20260509124022 83 322 1.7 2.6 0.00 0.00 0.00 94 1004.5
20260509123520 83 328 0.9 1.7 0.00 0.00 0.00 94 1004.4
20260509123015 82 261 0.0 1.7 0.00 0.00 0.00 94 1004.5
20260509122512 82 245 0.0 0.0 0.00 0.00 0.00 94 1004.1
20260509122009 83 241 0.0 0.0 0.00 0.00 0.00 93 1003.8
20260509121506 83 244 0.0 0.0 0.00 0.00 0.00 93 1004.0
20260509121004 83 254 0.0 0.0 0.00 0.00 0.00 92 1004.0
20260509120502 84 240 0.0 0.0 0.00 0.00 0.00 92 1003.9
20260509115959 84 241 0.0 0.0 0.00 0.00 0.00 92 1003.9
20260509115456 84 249 0.0 0.0 0.00 0.00 0.00 91 1004.0
20260509114954 84 235 0.0 0.9 0.00 0.00 0.00 91 1003.7
20260509114452 84 239 0.0 0.9 0.00 0.00 0.00 90 1003.9
20260509113951 84 232 0.9 0.9 0.00 0.00 0.00 89 1003.5
20260509113448 85 240 0.0 0.9 0.00 0.00 0.00 89 1003.4
20260509112945 85 236 0.0 0.9 0.00 0.00 0.00 88 1003.3
20260509112442 85 218 0.0 0.9 0.00 0.00 0.00 89 1003.3
20260509111938 85 182 0.9 0.9 0.00 0.00 0.00 88 1003.0
20260509111436 85 113 0.9 1.7 0.00 0.00 0.00 88 1003.0
20260509110933 85 128 0.9 2.6 0.00 0.00 0.00 88 1002.8
20260509110429 86 102 0.9 2.6 0.00 0.00 0.00 88 1002.8
20260509105927 86 105 2.6 2.6 0.00 0.00 0.00 87 1003.2
20260509105426 86 225 0.9 2.6 0.00 0.00 0.00 87 1002.9
20260509104922 86 189 0.9 2.6 0.00 0.00 0.00 87 1002.9
20260509104420 86 96 0.9 2.6 0.00 0.00 0.00 86 1002.9
20260509103917 87 133 3.5 5.2 0.00 0.00 0.00 86 1002.7
20260509103413 87 117 2.6 4.3 0.00 0.00 0.00 85 1002.6
20260509102912 87 121 3.5 5.2 0.00 0.00 0.00 86 1002.7
20260509102409 88 189 1.7 2.6 0.00 0.00 0.00 85 1002.4
20260509101905 89 231 0.0 0.9 0.00 0.00 0.00 84 1002.5
20260509101401 89 261 0.0 0.9 0.00 0.00 0.00 83 1002.3
20260509100859 89 284 0.0 0.9 0.00 0.00 0.00 82 1002.3
20260509100356 89 253 0.0 0.9 0.00 0.00 0.00 80 1002.2
20260509095853 90 250 0.0 0.0 0.00 0.00 0.00 81 1002.0
20260509095350 90 290 0.9 1.7 0.00 0.00 0.00 79 1001.9
20260509094847 91 259 0.0 0.9 0.00 0.00 0.00 77 1002.0
20260509094344 91 245 0.0 0.9 0.00 0.00 0.00 75 1001.7
20260509093841 91 310 0.9 0.9 0.00 0.00 0.00 74 1001.9
20260509093338 91 188 0.9 0.9 0.00 0.00 0.00 74 1001.8
20260509092837 91 212 0.9 0.9 0.00 0.00 0.00 75 1002.0
20260509092334 91 135 0.9 1.7 0.00 0.00 0.00 74 1001.8
20260509091832 92 214 0.0 0.9 0.00 0.00 0.00 76 1001.8
20260509091329 92 247 0.0 0.9 0.00 0.00 0.00 75 1001.8
20260509090826 91 13 0.0 0.9 0.00 0.00 0.00 73 1002.1
20260509090323 91 230 0.0 1.7 0.00 0.00 0.00 74 1001.7
20260509085820 91 115 1.7 2.6 0.00 0.00 0.00 73 1001.4
20260509085318 92 103 2.6 4.3 0.00 0.00 0.00 74 1001.6
20260509084814 92 1 2.6 4.3 0.00 0.00 0.00 74 1002.0
20260509084311 93 117 1.7 2.6 0.00 0.00 0.00 73 1001.7
20260509083809 92 343 0.9 0.9 0.00 0.00 0.00 74 1001.9
20260509083306 91 55 2.6 2.6 0.00 0.00 0.00 75 1001.9
20260509082802 92 97 3.5 4.3 0.00 0.00 0.00 75 1002.2
20260509082259 92 239 0.9 0.9 0.00 0.00 0.00 74 1002.3
20260509081756 91 295 0.9 1.7 0.00 0.00 0.00 73 1002.6
20260509081253 92 221 0.9 1.7 0.00 0.00 0.00 76 1002.7
20260509080751 92 135 2.6 2.6 0.00 0.00 0.00 76 1002.4
20260509080249 91 130 0.9 1.7 0.00 0.00 0.00 76 1002.6
20260509075747 91 98 2.6 4.3 0.00 0.00 0.00 77 1002.7
20260509075244 91 130 4.3 5.2 0.00 0.00 0.00 76 1002.5
20260509074740 91 264 0.9 4.3 0.00 0.00 0.00 76 1002.7
20260509074238 91 110 2.6 5.2 0.00 0.00 0.00 76 1002.5
20260509073734 92 326 1.7 2.6 0.00 0.00 0.00 76 1002.6
20260509073231 92 335 0.9 1.7 0.00 0.00 0.00 75 1002.7
20260509072727 92 294 0.0 2.6 0.00 0.00 0.00 74 1002.7
20260509072224 90 322 0.9 1.7 0.00 0.00 0.00 76 1002.6
20260509071721 90 95 1.7 4.3 0.00 0.00 0.00 78 1002.7
20260509071218 90 84 2.6 2.6 0.00 0.00 0.00 77 1002.7
20260509070715 90 128 0.9 2.6 0.00 0.00 0.00 79 1003.1
20260509070212 89 173 0.9 1.7 0.00 0.00 0.00 79 1003.2
20260509065708 90 64 0.9 1.7 0.00 0.00 0.00 78 1003.3
20260509065204 90 212 0.9 4.3 0.00 0.00 0.00 79 1003.8
20260509064701 89 80 2.6 2.6 0.00 0.00 0.00 80 1003.7
20260509064158 89 93 2.6 4.3 0.00 0.00 0.00 80 1003.8
20260509063655 90 74 3.5 5.2 0.00 0.00 0.00 78 1003.8
20260509063152 92 359 1.7 2.6 0.00 0.00 0.00 77 1004.2
20260509062649 92 202 0.9 5.2 0.00 0.00 0.00 77 1004.3
20260509062146 92 262 2.6 2.6 0.00 0.00 0.00 77 1004.2
20260509061643 91 274 0.9 1.7 0.00 0.00 0.00 78 1004.4
20260509061140 90 266 2.6 4.3 0.00 0.00 0.00 80 1004.3
20260509060638 89 159 0.9 4.3 0.00 0.00 0.00 80 1004.5
20260509060134 89 160 3.5 5.2 0.00 0.00 0.00 81 1004.6
20260509055629 90 339 0.9 1.7 0.00 0.00 0.00 79 1004.6
20260509055125 91 306 0.0 1.7 0.00 0.00 0.00 79 1004.7
20260509054623 91 357 2.6 4.3 0.00 0.00 0.00 77 1004.8
20260509054120 89 248 0.9 0.9 0.00 0.00 0.00 80 1004.8
20260509053619 89 257 0.0 1.7 0.00 0.00 0.00 81 1004.8
20260509053115 89 316 1.7 1.7 0.00 0.00 0.00 80 1004.8
20260509052613 89 281 0.9 2.6 0.00 0.00 0.00 79 1004.8
20260509052111 89 279 1.7 2.6 0.00 0.00 0.00 80 1005.1
20260509051608 89 357 0.9 1.7 0.00 0.00 0.00 81 1004.9
20260509051105 90 312 1.7 2.6 0.00 0.00 0.00 79 1005.2
20260509050602 89 295 0.9 1.7 0.00 0.00 0.00 81 1005.2
20260509050058 89 278 0.9 1.7 0.00 0.00 0.00 82 1005.4
20260509045556 88 315 2.6 2.6 0.00 0.00 0.00 84 1005.3
20260509045053 87 64 0.9 2.6 0.00 0.00 0.00 84 1005.2
20260509044550 87 49 2.6 2.6 0.00 0.00 0.00 84 1005.7
20260509044048 87 305 0.9 1.7 0.00 0.00 0.00 84 1005.5
20260509043544 87 35 1.7 1.7 0.00 0.00 0.00 84 1005.4
20260509043039 87 210 0.0 0.9 0.00 0.00 0.00 84 1005.8
20260509042536 87 301 0.9 0.9 0.00 0.00 0.00 83 1005.8
20260509042032 87 42 1.7 2.6 0.00 0.00 0.00 84 1005.9
20260509041529 87 40 0.9 1.7 0.00 0.00 0.00 84 1006.0
20260509041027 87 275 0.9 2.6 0.00 0.00 0.00 84 1006.2
20260509040525 86 356 0.9 1.7 0.00 0.00 0.00 86 1006.1
20260509040021 85 339 2.6 4.3 0.00 0.00 0.00 86 1006.0
20260509035518 85 32 2.6 4.3 0.00 0.00 0.00 85 1006.0
20260509035015 85 31 3.5 6.1 0.00 0.00 0.00 86 1006.3
20260509034513 85 358 2.6 2.6 0.00 0.00 0.00 86 1006.2
20260509034010 85 359 2.6 4.3 0.00 0.00 0.00 87 1006.1
20260509033507 86 317 0.9 2.6 0.00 0.00 0.00 87 1006.5
20260509033004 86 294 1.7 2.6 0.00 0.00 0.00 86 1006.5
20260509032501 86 257 0.9 1.7 0.00 0.00 0.00 86 1006.6
20260509031958 85 272 0.9 0.9 0.00 0.00 0.00 86 1006.6
20260509031455 85 281 0.9 2.6 0.00 0.00 0.00 88 1006.6
20260509030952 83 245 0.9 1.7 0.00 0.00 0.00 92 1006.6
20260509030450 81 348 0.9 1.7 0.00 0.00 0.00 96 1006.7
20260509025947 80 227 0.0 0.9 0.00 0.00 0.00 99 1006.8
20260509025443 79 245 1.7 2.6 0.00 0.00 0.00 99 1006.8
20260509024938 79 272 0.9 1.7 0.00 0.00 0.00 99 1007.2
20260509024434 79 249 0.9 2.6 0.00 0.00 0.00 99 1007.1
20260509023931 79 228 0.9 1.7 0.00 0.00 0.00 99 1007.1
20260509023429 78 252 0.0 1.7 0.00 0.00 0.00 99 1007.0
20260509022925 77 276 0.0 2.6 0.00 0.00 0.00 99 1007.1
20260509022423 78 261 0.0 0.9 0.00 0.00 0.00 99 1006.9
20260509021920 78 278 0.0 0.9 0.00 0.00 0.00 99 1006.8
20260509021417 78 346 1.7 1.7 0.00 0.00 0.00 99 1007.2
20260509020914 78 189 0.9 1.7 0.00 0.00 0.00 99 1007.1
20260509020412 77 257 0.0 0.9 0.00 0.00 0.00 99 1007.1
20260509015909 77 26 0.9 1.7 0.00 0.00 0.00 99 1007.0
20260509015408 77 242 0.0 0.9 0.00 0.00 0.00 99 1007.3
20260509014904 77 14 0.9 1.7 0.00 0.00 0.00 99 1007.3
20260509014401 77 298 0.0 0.0 0.00 0.00 0.00 99 1007.1
20260509013857 76 213 0.0 1.7 0.00 0.00 0.00 99 1007.2
20260509013354 77 260 0.0 0.9 0.00 0.00 0.00 99 1007.0
20260509012849 76 258 0.0 0.0 0.00 0.00 0.00 99 1006.8
20260509012347 76 256 0.0 1.7 0.00 0.00 0.00 99 1006.7
20260509011844 76 282 0.0 0.9 0.00 0.00 0.00 99 1006.9
20260509011341 76 289 0.9 1.7 0.00 0.00 0.00 99 1006.9
20260509010839 77 291 0.0 0.9 0.00 0.00 0.00 99 1006.8
20260509010337 77 258 0.0 0.0 0.00 0.00 0.00 99 1006.8
20260509005833 77 289 0.9 1.7 0.00 0.00 0.00 99 1006.6
20260509005331 77 293 0.0 0.9 0.00 0.00 0.00 99 1006.6
20260509004826 77 271 0.9 1.7 0.00 0.00 0.00 99 1006.7
20260509004322 77 250 0.0 1.7 0.00 0.00 0.00 99 1006.8
20260509003820 76 261 0.0 0.0 0.00 0.00 0.00 99 1006.8
20260509003318 76 291 0.9 1.7 0.00 0.00 0.00 99 1006.6
20260509002815 76 287 0.9 1.7 0.00 0.00 0.00 99 1006.8
20260509002312 76 308 0.0 0.9 0.00 0.00 0.00 99 1006.5
20260509001810 76 264 0.0 1.7 0.00 0.00 0.00 99 1006.2
20260509001305 76 248 0.0 0.0 0.00 0.00 0.00 99 1006.5
20260509000803 76 256 0.0 0.9 0.00 0.00 0.00 99 1006.3
20260509000303 75 276 0.9 0.9 0.00 0.00 0.00 99 1006.2
20260508235757 76 258 0.0 0.9 0.00 0.00 0.00 99 1006.3
20260508235253 76 262 0.0 0.9 0.00 0.00 0.00 99 1006.2
20260508234751 75 246 0.0 0.0 0.00 0.00 0.00 99 1006.0
20260508234246 75 267 0.9 0.9 0.00 0.00 0.00 99 1005.9
20260508233741 75 281 0.0 1.7 0.00 0.00 0.00 99 1005.9
20260508233239 75 251 0.0 0.0 0.00 0.00 0.00 99 1005.8
20260508232736 75 248 0.0 0.0 0.00 0.00 0.00 99 1005.6
20260508232232 75 247 0.0 0.9 0.00 0.00 0.00 99 1005.9
20260508231731 75 262 0.0 0.9 0.00 0.00 0.00 99 1006.0
20260508231227 75 270 0.9 1.7 0.00 0.00 0.00 99 1005.6
20260508230724 75 280 0.9 1.7 0.00 0.00 0.00 99 1005.6
20260508230220 75 251 0.0 0.9 0.00 0.00 0.00 99 1005.6
20260508225718 75 252 0.9 0.9 0.00 0.00 0.00 99 1005.4
20260508225214 75 275 0.0 0.9 0.00 0.00 0.00 99 1005.3
20260508224712 75 265 0.9 0.9 0.00 0.00 0.00 99 1005.4
20260508224210 75 260 0.0 0.9 0.00 0.00 0.00 99 1005.4
20260508223707 75 264 0.0 0.9 0.00 0.00 0.00 99 1005.4
20260508223204 75 267 0.0 0.0 0.00 0.00 0.00 99 1005.2
20260508222701 75 266 1.7 1.7 0.00 0.00 0.00 99 1005.2
20260508222159 75 275 0.0 1.7 0.00 0.00 0.00 99 1005.0
20260508221655 75 252 0.0 0.0 0.00 0.00 0.00 99 1004.9
20260508221150 75 267 0.0 1.7 0.00 0.00 0.00 99 1004.8
20260508220647 75 286 0.9 0.9 0.00 0.00 0.00 99 1005.0
20260508220144 75 252 0.0 0.9 0.00 0.00 0.00 99 1004.9
20260508215640 75 250 0.0 0.0 0.00 0.00 0.00 99 1004.9
20260508215137 75 244 0.0 0.9 0.00 0.00 0.00 99 1004.8
20260508214634 75 260 0.9 1.7 0.00 0.00 0.00 99 1004.7
20260508214131 75 251 0.0 0.9 0.00 0.00 0.00 99 1004.5
20260508213628 75 276 0.9 1.7 0.00 0.00 0.00 99 1004.5
20260508213124 75 252 0.0 0.9 0.00 0.00 0.00 99 1004.7
20260508212621 75 257 0.0 0.0 0.00 0.00 0.00 99 1004.7
20260508212117 75 252 0.0 0.9 0.00 0.00 0.00 99 1004.7
20260508211612 75 257 0.0 0.9 0.00 0.00 0.00 99 1004.8
20260508211109 76 262 0.0 0.9 0.00 0.00 0.00 99 1004.9
20260508210606 76 257 0.0 0.9 0.00 0.00 0.00 99 1004.9
20260508210103 76 273 0.0 0.9 0.00 0.00 0.00 99 1004.7
20260508205600 75 251 0.0 0.0 0.00 0.00 0.00 99 1004.8
20260508205057 75 250 0.0 0.0 0.00 0.00 0.00 99 1004.6
20260508204553 76 256 0.0 0.0 0.00 0.00 0.00 99 1004.6
20260508204049 75 247 0.0 0.0 0.00 0.00 0.00 99 1004.8
20260508203545 75 254 0.0 0.0 0.00 0.00 0.00 99 1005.0
20260508203041 75 253 0.0 0.0 0.00 0.00 0.00 99 1004.8
20260508202538 75 253 0.9 0.9 0.00 0.00 0.00 99 1004.9
20260508202035 75 255 0.0 0.0 0.00 0.00 0.00 99 1004.8
20260508201532 75 258 0.0 0.9 0.00 0.00 0.00 99 1004.8
20260508201028 75 264 0.9 0.9 0.00 0.00 0.00 99 1004.7
20260508200526 75 253 0.0 0.0 0.00 0.00 0.00 99 1004.9
20260508200021 75 259 0.0 0.9 0.00 0.00 0.00 99 1005.1
20260508195518 76 271 0.0 0.9 0.00 0.00 0.00 99 1004.8
20260508195014 76 256 0.0 0.0 0.00 0.00 0.00 99 1005.2
20260508194512 76 265 0.9 1.7 0.00 0.00 0.00 99 1005.1
20260508194009 76 252 0.0 0.9 0.00 0.00 0.00 99 1004.9
20260508193505 76 266 1.7 1.7 0.00 0.00 0.00 99 1005.1
20260508193002 76 261 0.0 0.9 0.00 0.00 0.00 99 1005.1
20260508192458 76 256 0.9 0.9 0.00 0.00 0.00 99 1005.0
20260508191955 76 250 0.0 0.9 0.00 0.00 0.00 99 1005.1
20260508191452 75 268 0.9 0.9 0.00 0.00 0.00 99 1004.8